Regional Weather Roundup
Issued by NWS

Home | Current Version | Previous Version | Text Only | Print | Product List | Glossary Off
Versions: 1 2 3 4 5 6 7 8 9 10 11 12 13 14 15 16 17 18 19 20 21 22 23 24 25 26 27

000
ASUS45 KTFX 230410
RWRMT
MONTANA REGIONAL WEATHER ROUNDUP
NATIONAL WEATHER SERVICE GREAT FALLS MT
900 PM MST WED FEB 22 2017

NOTE: "FAIR" INDICATES FEW OR NO CLOUDS BELOW 12000 FEET WITH NO
SIGNIFICANT WEATHER AND/OR OBSTRUCTIONS TO VISIBILITY.

MTZ001>007-043-230500-
WEST OF THE DIVIDE

CITY           SKY/WX    TMP DP  RH WIND       PRES   REMARKS
KALISPELL      CLEAR     28  22  78 CALM      29.94S
MISSOULA       CLOUDY    30  28  92 S3        29.94S
BUTTE          LGT SNOW  27  24  89 CALM      29.83F FOG
MULLAN PASS    FOG       20  18  92 N5        29.85F VSB 3/4
ANACONDA         N/A     28  23  80 CALM      29.86S
DEER LODGE       N/A     28  23  80 NW6       29.89S WCI  22
EUREKA           N/A     27  23  86 CALM      29.97S
HAMILTON         N/A     32  25  74 NW3       29.91S
LIBBY            N/A     28  25  86 CALM      29.97S
RONAN            N/A     27  22  81 CALM      29.97F
$$

MTZ008-052>055-230500-
SOUTHWEST MONTANA

CITY           SKY/WX    TMP DP  RH WIND       PRES   REMARKS
BOZEMAN        CLOUDY    28  24  85 CALM      29.86F
DILLON         CLOUDY    28  23  81 NE10      29.79F WCI  19
W YELLOWSTONE  CLOUDY    14  12  92 CALM      29.77F
ENNIS          CLOUDY    27  23  86 CALM      29.85F
THREE FORKS      N/A     30   3  31 CALM      29.87S
TWIN BRIDGES     N/A     30  22  72 N10       29.82F WCI  21
$$

MTZ009-010-012-014-046-048-049-054-230500-
EAST SLOPES AND CENTRAL MONTANA

CITY           SKY/WX    TMP DP  RH WIND       PRES   REMARKS
CUT BANK       CLOUDY    27  25  92 NE5       29.95F FOG
GREAT FALLS    CLOUDY    30  25  81 N7        29.95R WCI  23
MALMSTROM AFB  CLOUDY    31  28  88 NW6       29.96R WCI  25
HELENA         CLOUDY    33  25  72 W5        29.90R
AUGUSTA        CLOUDY    27  24  87 N9        29.92F WCI  18
BOWMANS CRNR   MOCLDY    27  23  86 N9        29.90S WCI  17
CHOTEAU          N/A     27  25  93 NW6       29.96F WCI  20
CONRAD           N/A     30  29  96 NW2       29.98S
POWER          CLOUDY    29  25  84 N8        29.94R WCI  21
RAYNESFORD     MOCLDY    29  28  96 NW5       29.93S
ULM            MOCLDY    31  28  88 MISG      29.95R
$$

MTZ011-013-016-021-045-047-050-051-230500-
NORTH CENTRAL MONTANA

CITY           SKY/WX    TMP DP  RH WIND       PRES   REMARKS
HAVRE          LGT SNOW  30  29  96 NE6       29.97S FOG     WCI  24
LEWISTOWN      CLOUDY    29  27  92 SW5       29.90S
N BAR RANCH    CLOUDY    27  27 100 E6        29.92S FOG     WCI  20
CHINOOK          N/A     30  28  93 CALM      29.99R
DENTON         MOCLDY    30  29  95 E8        29.88F WCI  23
FORT BENTON      N/A     32  30  93 N3        29.98R
GEYSER         MOCLDY    27  25  91 SW8       29.90F WCI  19
GRASS RANGE    LGT SNOW  27  27  99 NE8       29.90R WCI  19
JUDITH GAP     LGT SNOW  26  25  96 N9        29.88F WCI  17
ROY            CLOUDY    27  25  92 MISG      29.93R
STANFORD       CLOUDY    28  27  95 N6        29.90S WCI  22
WINIFRED       MOCLDY    28  27  99 E15       29.91S WCI  16
$$

MTZ017>020-022>027-061-062-230500-
NORTHEAST MONTANA

CITY           SKY/WX    TMP DP  RH WIND       PRES   REMARKS
GLASGOW        CLOUDY    26  24  92 CALM      30.00S
JORDAN           N/A     25  22  88 NE5       29.98S
SIDNEY         CLOUDY    29  27  92 CALM      30.02R
WOLF POINT     CLOUDY    30  27  88 CALM      30.02S
PLENTYWOOD       N/A     32  23  69 CALM      29.99S
POPLAR           N/A     28  27  93 CALM      30.02S
SCOBEY           N/A     29  20  69 CALM      29.97R
$$

MTZ028>42-056>058-230500-
SOUTHCENTRAL AND SOUTHEAST MONTANA

CITY           SKY/WX    TMP DP  RH WIND       PRES   REMARKS
BAKER          CLOUDY    28  25  88 NE7       29.96R WCI  21
BILLINGS       LGT SNOW  31  30  96 NE10      29.91S VSB 1   WCI  22
LIVINGSTON     CLOUDY    30  24  78 E15       29.85F WCI  19
MILES CITY     MOCLDY    30  24  78 E5        29.97F
BIG TIMBER     CLOUDY    28  27  93 N7        29.91S WCI  21
HARLOWTON      LGT SNOW  28  27  93 NE17      29.89S WCI  16
LAUREL           N/A     31  25  78 CALM      29.89F
$$

REGIONAL REPORTS...DAKOTAS

CITY           SKY/WX    TMP DP  RH WIND       PRES   REMARKS
WILLISTON      CLOUDY    27  24  89 CALM      30.01R
MINOT          CLOUDY    32  26  78 W9        29.97R WCI  24
DICKINSON      CLOUDY    27  23  85 NW3       29.95S
BEACH            N/A    N/A N/A N/A MISG        N/A
CROSBY         CLOUDY    32  32 100 SW6       30.01S WCI  26
TIOGA          CLOUDY    27  27 100 W5        30.00R
WATFORD CITY   CLOUDY    28  27  93 CALM      30.00S
BISMARCK       CLOUDY    33  28  81 N8        29.99R WCI  26
GRAND FORKS    PTCLDY    30  22  72 NW9       29.95R WCI  22
FARGO          CLEAR     32  28  85 N12       29.92R WCI  23
BUFFALO SD       N/A     31  28  89 NE10      29.86F WCI  22
RAPID CITY     CLOUDY    32  27  81 NE13      29.91R WCI  22
$$

REGIONAL REPORTS...WYOMING/IDAHO/WASHINGTON

CITY           SKY/WX    TMP DP  RH WIND       PRES   REMARKS
GILLETTE       CLOUDY    30  27  88 NE12      29.86R WCI  20
SHERIDAN       FLURRIES  33  31  92 SE7       29.88S WCI  27
BUFFALO WY     LGT SNOW  31  28  89 NW7       29.85S FOG     WCI  24
CODY           FLURRIES  29  26  89 N10       29.84S WCI  20
YELLOWSTONE LA   N/A      5   4  95 NW5       29.76F
IDAHO FALLS    CLOUDY    30  27  88 N6        29.76F WCI  24
SALMON         CLOUDY    30  27  86 SW3       29.80F
BOISE          CLOUDY    34  29  82 NW15      29.85F WCI  24
SPOKANE        PTCLDY    27  25  92 SW3       30.02S
$$

REGIONAL REPORTS...ALBERTA

CITY           SKY/WX    TMP DP  RH WIND       PRES   REMARKS
EDMONTON       PTCLDY    21  16  79 W7        30.06S WCI  13
CALGARY        LGT SNOW  25  21  86 CALM      30.01S
LETHBRIDGE     FLURRIES  27  25  93 NE12      30.01R WCI  16
MEDICINE HAT   LGT SNOW  27  23  86 NE8       30.05R WCI  18
MILK RIVER       N/A     27  25  93 NE16        N/A  WCI  14
$$

REGIONAL REPORTS...SASKATCHEWAN

CITY           SKY/WX    TMP DP  RH WIND       PRES   REMARKS
SWIFT CURRENT  LGT SNOW  25  25 100 N12       29.99R WCI  14
REGINA         CLOUDY    30  27  86 N12       29.99R WCI  21
SASKATOON      FLURRIES  25  16  68 NW13      30.07S WCI  13
CYPRESS HILLS    N/A     21  18  86 N6          N/A  WCI  14
VAL MARIE        N/A     30  27  86 S7          N/A  WCI  23
ROCKGLEN         N/A     28  25  86 SW5         N/A
ASSINIBOIA       N/A     23  18  80 W5          N/A
$$




USA.gov is the U.S. government's official web portal to all federal, state and local government web resources and services.